Back to race calendar - Race photos (Sport Sunday)

Keswick Half Marathon, Cumbria

4th May 2014

Results courtesy of Steve Ashcroft
(This is a sortable table - click column heading)
Filter (choose one only!)
Surname:
Cat: Club:
PosNumForenameSurnameCatClubTime
1261HarryCoatesMWallsend Harriers01:14:17
2613JohnFrenchMEden Runners01:16:26
3474SamSteadMKeswick AC01:20:24
44SteveAngusMV45Border Harriers01:20:53
5617JonathanCoxMEden Runners01:21:03
6611StevenGarnerMV40 01:21:46
7248RichardByersMV50Trafford AC01:22:19
848TonyMounseyMV40Cumberland AC01:23:22
9229DavidBestMBlackhill Bounders01:23:44
10394PatrickMalkinsonM 01:24:42
11616RobDoyleMV40 01:24:59
12335AndrewHendersonM 01:25:07
13434GregoryPennMV50North Sheilds Poly01:25:15
14134AlanHodgsonMV40Tyne Bridge Harriers01:25:45
15415SamMoonMHelm Hill Runners01:25:50
16444NickRayMV40Ellenborough AC01:25:59
17111AndrewMeskimmonMV50Dewsbury RR01:26:14
18186JohnTaylorM 01:27:55
19203SimonAlapontM 01:28:23
20169KeithSwainsonM 01:28:24
21197DuncanLawrenceM 01:28:32
22215StephenAtwellMV40North Sheilds Poly01:28:34
23198MarkWorrallM 01:28:39
24606AndrewPipesMDerwent AC01:28:41
25227MatthewBennettMBRAT / BLACK01:29:02
26233DavidBowdenMV40 01:29:11
27549JosephWalkerMRossendale Harriers01:29:43
28128GeorgeRoyston-BishopMDerwent AC01:29:45
29458KevinScittMV40 01:29:56
3011ChrisCampbellMV45Trawden AC01:29:59
31495CarlTomlinsonM 01:30:10
32400AlistairMcCollMSerpentine RC01:30:15
33114MattRayMEynsham RR01:30:15
34449DudleyRobertsMV45Tynedale Harriers01:30:19
3539PaulBarnesMV40Borrowdale Fell Runners01:30:20
36480MarkStoutM 01:30:24
37479LucyStobbartFCumberland AC01:30:31
38508PeterWalkerMV45Derwent AC01:30:39
391DuncanFramptonMV55Keswick AC01:30:55
40255WillChristiansenM 01:31:04
41544ChrisGrieveMSwinton Rc01:32:05
422JohnThompsonMKeswick AC01:32:20
4329NeilHughesMAstley & Tyldesley RR01:32:26
44176IanMcDougallMV50Cumberland AC01:32:28
45462AlixShepherdMBlaydon Harriers01:32:36
46493ChrisToddM 01:32:54
47237AntonyBriscoeMV50Cumberland AC01:33:09
48252SteveChappellMV45Sweat Shop (Chorley)01:33:18
49539ChrisChadwickMV45 01:33:34
50370WayneKing-FarlowMV40Bingley Harriers01:33:50
51257AlexChudleyMV40 01:34:08
5285DerekLodgeMV50Lancashire Police Running Team01:34:10
53515ThomasWelshmanMUni Nottingham01:34:11
54405PaulMeeMV40 01:34:28
55123JonathanPoirretteMV50Serpentine RC01:34:32
56247SarahBurrellF 01:34:37
57246BenBurrellM 01:34:39
58302ThomasFraserMUclu CCA01:34:43
59168AaronBodycoteMCoventry Godiva Harriers01:34:44
60358SimonJacksonMKeswick AC01:35:04
61524VivWinterFV45Derwent AC01:35:10
62597AndyBaileyMTri Lakeland01:35:12
6331PhillRaeMV45Vale of Aylesbury AC01:35:28
64381NickLancasterMV60 01:35:39
65256SophieChudleyFV35 01:35:45
66135PerryStanleyMV50 01:35:46
6740PhilipConnerMV40 01:35:50
6838JohnWalkerMV50Tri Lakeland01:35:58
69628BernardGilmartinMEden Runners01:36:16
7044ChrisLodgeMV40 01:36:20
7128RichardElliottMV45Cumberland AC01:36:42
72313MartinGaughanMV55Blyth RC01:36:49
73610AnthonyHomerMV50Stourbridge RC01:36:58
74265KevinCoughlanM 01:37:03
75293PaulEllisMV55 01:37:09
765DerrenSarginsonMV40Blackhill Bounders01:37:11
77349AlanHomerM 01:37:15
78183KeithMcVeighMV55Cumberland AC01:37:18
79618StephenBurrowsMV40 01:37:52
80408DavidMillerM 01:37:56
81453MichaelRobinsonM 01:38:27
82211PeterAppleyardMV45 01:38:33
83163RoryMcDonaldM 01:38:36
84621DavidSmithMV45Trawden AC01:38:40
85534AdamBairdMV40Ambleside AC01:38:45
86345JosephHodsonMPB Fitness Running Club01:38:47
87314BernieGibsonFV45PB Fitness Running Club01:38:49
88240JohnBrownMV60North Sheilds Poly01:38:56
89553NigelStoreyMV45Hoad Hill Harriers01:39:02
90600MartinQuinnMV40Chorley AC01:39:08
91280EmilyWoodF 01:39:11
92315DavidGilmoreMV50North Sheilds Poly01:39:16
9341SamFugillMNidd Valley RR01:39:32
94542KeithMahonMV50Village RR01:39:55
95450MarkRobinsonMV45Sunderland Strollers01:39:57
96612DeanVaughanM 01:40:14
97175ShaunDoddFV40Blyth RC01:40:25
98367DeborahJonesFPB Fitness Running Club01:40:40
99375AndrewKirkmanMV40 01:41:00
100431MichaelParkerMV55 01:41:03
101630NameNoM 01:41:06
102631nameNoF 01:41:06
103318RobertGoochMV50Kimberley + District Striders01:41:10
104419KevinMulveyMDH Runners01:41:12
105263DerekCoopMV50Astley & Tyldesley RR01:41:13
106451PeterRobinsonMV40 01:41:14
107595AnthonyStaffordM 01:41:20
108364ErikaJohnsonFV40Swaledale RR01:41:23
109177RachelJeffFV35 01:41:26
110331GrahamHawkinsMV40Motherwell AC01:41:27
11184JeffreyHowardMV55Otley AC01:41:29
112238NickBrookesMV45 01:41:32
113319AndrewGrahamMDH Runners01:41:34
114131ScottLankesterM 01:41:35
115454AlRookMPB Fitness Running Club01:41:42
116303RussellFraserM 01:41:46
117362EvanJeffriesM 01:41:49
118142RobinSteelsM 01:41:51
11932RebeccaLeeFWestbury Harriers01:41:54
120307LukeFurneauxMV40 01:41:54
121180TaraFloranceFV40PB Fitness Running Club01:42:08
122378EmmaKnowlesFDumfries Harriers01:42:17
123601SuzanneSmithFV40Keswick AC01:42:29
124145ChristopherJamiesonMV55Esk Valley Fell Club01:42:35
12534FredJudsonMV55Sunderland Harriers01:42:43
126195JohnTrevettMV50 01:42:52
127504DomenicVolpeMV45 01:42:52
128529AntWilliamsonMV45Black Hill Bounders01:42:58
129461TomaszSepetkowskiMV40Keswick AC01:43:00
13099BobBeatsonMV50Ranelagh Harriers01:43:03
131332IanHaydenMAurora Harriers01:43:08
132288LindsayDunnFPB Fitness Running Club01:43:12
13375ThomasTempleMV60Salford Harriers01:43:25
134373PeterKirkbrideMV60 01:43:26
135279TimDaviesM 01:43:38
1368DavidCallachanM 01:43:42
137482NickSymondsMV45 01:43:47
138249AndrewCallcottMV50PB Fitness Running Club01:43:47
139478PaulStephensonMV45PB Fitness Running Club01:44:05
140115DawnPritchardFV40 01:44:18
141359IanJacksonMBlackhill Bounders01:44:20
142510StephenWardM 01:44:36
143411EdwardMitchellMV50 01:44:40
14427AlexandraStewartFV45 01:44:41
145156GrahamHarrisonMV50Saltwell Harriers01:44:43
14619IanWilsonMV45 01:44:47
147146TimWarnerMV55Garstang RC01:44:53
148468MaureenSimpsonFV40 01:45:05
14957StephenBiggsM 01:45:11
15058AdamParkinsM 01:45:12
15183PhilipWildsmithMV45 01:45:15
152269MarkCrostonM 01:45:16
153312DaniGaskinFBlackhill Bounders01:45:26
154533OrlandoPrestidgeM 01:45:30
15570ChrisPriceMV45 01:45:40
15659EstherIllmanF 01:45:40
157296RobEverettMV50 01:45:47
15849IanGrimshawMV50Derwent AC01:46:09
159447MarkRichmondMV50 01:46:10
160603GillianBaxterFV50Cumberland AC01:46:15
161365PhilipJohnstonM 01:46:21
16246AidanStephensonMV45Crook & District AC01:46:27
163368DavidKeeleyMV55Havering 90 joggers01:46:38
164609StephenBeresfordMV45 01:46:46
165513SimonWelchMV40Keswick AC01:46:50
166188MikeKolodyknskiMV50 01:46:52
167173RaymondStephensonMV45 01:46:54
168205JeffAllenMV50 01:46:57
169528LouiseRileyFV35St Bees Triers01:47:06
170278NathanDaviesM 01:47:08
17142DuncanKerrMV40 01:47:16
172623DavidGrahamMV40 01:47:21
173538SadieMcKeandFV40Lancaster Womens RG01:47:26
174599DanielDattonMDerwent AC01:47:35
175369MikeKendrickMV50 01:47:42
176127HilaryRoyston-BishopFDerwent AC01:47:47
177598MartinDuttonMV45Derwent AC01:47:47
17897NicolaChamberlainFV35Kimberley + District Striders01:47:56
179190JohnSteeleMV55Cumberland AC01:47:56
180432KamleshPatelMBolton Utd Harriers01:47:56
181102DavidDevennieMV40Claremont RR01:47:56
182103SaraDevennieFV35 01:47:56
183502MichaelTysonM 01:47:57
18466DavidWrightMV60Low Fell Running Club01:48:03
185254BenjaminChizaryM 01:48:12
186129MikeGreenMV55Vegan Runners01:48:15
187154CharlesConnerMV40 01:48:16
188511TimothyWatmoughM 01:48:16
189287MarkDuerdenMV45 01:48:22
190333NikkiHazonFV35PB Fitness Running Club01:48:26
19176JohnDunnMV50 01:48:32
192540AngelaGraceFV40 01:48:39
193285WilliamDoidgeMV65Lowfell RC01:48:40
19447WayneJatsonMV45DH Runners01:48:47
195481SamanthaSugdenFEden Runners01:48:54
196486StephanieThandiFV40 01:49:05
197488PeterThomasMV50 01:49:06
198374ChrisKirkbrideM 01:49:07
199147ChrisFrancisMV60Tynedale Harriers01:49:12
200310JamesGamgeeM 01:49:12
201100ShaunBruceMV50Hartlepool Burn Road Harr.01:49:14
202304LaurenceFrazerMV50 01:49:16
203506LindsayWalkerF 01:49:17
204234ClareBrewisFLow Fell Running Club01:49:22
205271StevenCurryMV50Elswick Harriers01:49:28
206422BeckiNewmanFWallsend Harriers01:49:33
207443DuncanProudMV40 01:49:36
208270StuartBuchananMV50Cumberland AC01:49:46
209346KevinHogarthMV50 01:49:56
21023MalcolmJenningsMV40 01:49:57
211614SamStarmerM 01:49:58
212352RebeccaHowardFQuakers RC01:50:02
213337IainHeppellM 01:50:10
214496JacobTonkinM 01:50:14
215615IainAllanMV45 01:50:16
21652EmmaGrahamFV35St Bees Triers01:50:27
217275TomDarkeyMV45 01:50:30
218477DanielSteelsM 01:50:38
219541ClaireKnoxFV35PB Fitness Running Club01:50:39
220627AdeleSinclairFV40PB Fitness Running Club01:50:39
221464DerekSiddleMV40 01:50:43
222514JohnWelshmanMV50 01:50:48
223207LeeAndersonMV40West Cumbria Tri01:51:02
224596JamesGibbondMV45 01:51:10
225377TomKitchingM 01:51:16
226185RichardRamsdenMV40 01:51:30
227214RobertAthertonMV60 01:51:37
228126DavidRevelyMV50 01:51:43
229413IanMitchellMV50 01:51:46
230520JemmaWilliamsonFV35 01:51:50
231162LukeCollardM 01:51:55
232383LisaLawsonFV35PB Fitness Running Club01:51:56
233149NicolaLatimerFV45Wigton RR01:52:08
234604MargaretHawleyFV55Cumberland AC01:52:13
235420AndyNelsonMV50Derwent AC01:52:24
23643PeterAtkinsonMV50North Sheilds Poly01:52:28
237421MarkNewmanM 01:52:30
238174DawnGainfoldFV40Cumberland AC01:52:32
239152AnthonyGrayM 01:52:33
240264PamelaCostelloFV60Redcar RC01:52:37
241512MrsWelchFV35Keswick AC01:52:39
242382BethLawryFHeaton Harriers01:52:50
243624LiamBerweyMV60 01:52:55
244308MichaelGainesM 01:52:56
245338TerryHerbertMV60Noth East Veterans AC01:53:07
246171DavidTuckMV40 01:53:10
247548LouiseDickinsonFRossendale Harriers01:53:19
248158PaulJacksonMV45Chorley Harriers01:53:29
249466RobinSidebottomMV40 01:53:34
250391ChrisMagsonM 01:53:45
251500MarkTurnerMV45Werrington Joggers01:53:53
252629JamesBarnesMV50UK Net Runner01:53:56
253426KarenOgleFV40PB Fitness Running Club01:53:59
254384KevinLeeMV50Blackhill Bounders01:54:02
255219DarrenBarnesM 01:54:05
256348IanHollandMV60North Sheilds Poly01:54:09
257194LisaDallissonFV40Stratford-upon-Avon AC01:54:09
258619PhillipCraghillMV45 01:54:13
259243AlexandraBruinvelsF 01:54:20
260133LeeEdwardsM 01:54:40
261353AidanHughesMV40Blackhill Bounders01:54:41
262143NicolaGloyneFV35Blackhill Bounders01:54:41
263226CarmenBenaventMKeswick AC01:54:45
264291MarkEdwardsMV55North York Moors AC01:54:46
265157BevFaulderFV35Seaton AC01:54:48
266360RyanJamesM 01:55:00
267491AndrewThorlbyMV40 01:55:02
268184SarahChaudhriFV50Cumberland AC01:55:06
269121TrishKayFV50Aycliffe Running Club01:55:07
270150AnnaBlackburnFV50Derwent AC01:55:14
27112SandraCampbellFV45Trawden AC01:55:16
272170MickMcGurkMV60New Marske H01:55:16
273412MarianneMitchellFV35Ware Joggers01:55:18
274209ClaireAntrobusFV40 01:55:19
27513RichardSmithMV50Ackworth RR01:55:21
276626MarkWiseMV50 01:55:32
27718PatricGilchristMV65Keswick AC01:55:35
278316DouglasGoldM 01:55:35
2799JimCreightonM 01:55:37
280622JamesScoonM 01:55:37
281199JenAgerF 01:55:41
282206TonyAllenMV55 01:55:46
283317LornaGoldFV50Ferc01:55:49
284414DaveMitchellMV50Blackhill Bounders01:55:53
28545AndrewAdamsMV55Derwent AC01:56:04
286250StephenCarfordMV40 01:56:10
287607AllanGribbinMV40 01:56:14
28887TerenceFentonMV50Great Western Runners01:56:14
289276MelDaviesFV45Sunderland Strollers01:56:26
290354IanHughes-LawsonMV50Tyne & Wear Fire & Resue01:56:28
291167GeorgieHillFNorth York Moors AC01:56:33
292342MrHibbertMV50 01:56:37
293475ClarieSteedmanFV45 01:56:37
294196ChristopherDormanMV50 01:56:42
295620WillRobsonMV40 01:56:44
296334MrHemsworthM 01:56:54
297550KeithGillMV45 01:56:56
298181WilliamCunninghamMV45Cumberland AC01:56:57
29916RobDevittM 01:56:58
300473DarrenStapletonM 01:56:58
30115MatthewAtkinsonM 01:57:04
302144JeanBradleyFV55Elvet Striders01:57:12
303242VickiBrownFV40Blackhill Bounders01:57:17
304159JudeGaleFV40 01:57:20
30530StewartStrathM 01:57:22
3067AndrewJacksonM 01:57:30
307344SharonHobsonFV40Bolsover & District01:57:34
308490LouiseThompsonFRossendale Harriers01:57:42
309519GlennWilkinsonMV45Bolton Harriers01:57:44
310124SyamVelayudhanMV60Ackworth RR01:57:44
311125MichealaVelayudhanF 01:57:55
312386IonaLeigh-JonesFV40 01:58:04
313366RobJonesMV40 01:58:04
314469AnthonySmithMV40 01:58:12
315193LyndseyCartwrightF 01:58:14
316552PeteMitchellMV65Kendal AC01:58:18
317547MikeGillMV70Blackhill Bounders01:58:27
318260ChristianCleggMV50 01:58:29
319172StephenRaeM 01:58:42
320160JessieBlakemoreF 01:58:54
32162KatyMarslandF 01:59:15
322556CraigHatchMV45 01:59:18
323245DavidBurnettMStopsley Striders01:59:18
324210ClaireAppletonFV40PB Fitness Running Club01:59:27
325309JoshuaGamesM 01:59:35
326472ElizabethSowterFV50Swaledale RR01:59:37
327433KellyPearsonF 01:59:37
328492DanThwaitesM 01:59:54
329327VickiHalseFLow Fell Running Club02:00:07
330155JoannaMitchellFV35Stocksfield Striders02:00:08
331298JulieFlanaganFV40 02:00:11
332187AlisonMcKieFV35Carlisle Tri02:00:19
33377AnneMacFarlaneFV50 02:00:24
334259AllanClarkMV60Lowfell RC02:00:33
335182PaulOharaMV45PB Fitness Running Club02:00:33
336551CarolinePearceF 02:00:37
33710SteveHigginsMV45 02:00:40
3383SaraYoungFV40 02:00:40
339231AdamBoggisM 02:00:50
340200EricTomlinsonMV55 02:00:56
341439VanessaPowellFV40 02:01:04
342387LindaLisserF 02:01:04
34381TimothyWilliamsonMV40 02:01:17
344283GrahamDenneyMV45 02:01:31
34568AshleighRanftF 02:01:37
346485DavidTaylorMV60Chester Tri02:01:45
347484JanetTaylorFV50Chester Tri02:01:45
348105JoannaTaylorFV50 02:01:48
349106JimLeatherlandMV55 02:01:48
350455AudreyRoweFV45Blackhill Bounders02:01:52
351191LeeWelsbyM 02:01:55
352136AaronLewisM 02:02:11
35388ZoeMilnesFV35Stainland Lions02:02:11
35417PeterGuillifordMV65 02:02:16
355483MissTanriverdiFV35 02:02:23
356216SashaBanFV45PB Fitness Running Club02:02:23
357417DebbieMooreM 02:02:28
358396RoyMarsdenMV55 02:02:37
359427AntoinetteOglethorpeFV45 02:02:44
360507EmmaWalkerFV35Derwent AC02:02:48
361543IanBithellMV45 02:02:53
362532GraemeDuguidM 02:02:53
363192GrahamWilsonMV45 02:03:04
364230NicholasBlandMCastlerigg Manor02:03:05
365325BenHaldaneM 02:03:05
366225MartinBellMV50 02:03:37
367251PJChampaultMV50West 4 Harriers02:03:42
368179SarahBrothertonF 02:03:43
369178PeterClarkeM 02:03:43
370602GordonHindsonMV40Blackhill Bounders02:03:45
371632NameNoF 02:03:54
372218CraigBarkerM 02:03:59
37389LeeDoolinMV45 02:04:00
374372RobertKirbyMV50Quakers RC02:04:01
37586RobertSmithM 02:04:09
376108DaleYoungMV45 02:04:15
377213JosephAthertonMV55Stafford Harriers02:04:24
37854CarylGibsonFV50Stafford Harriers02:04:24
379625MartinArmstrongMV45 02:04:33
380101RobertHartMV50 02:04:37
381329TonyHarperMV55 02:04:44
382130SallyLankesterF 02:04:49
383299HaileyFletcherF 02:05:15
384300EddieFletcherM 02:05:15
385224TimothyBaughMV45Carlise Tri02:05:23
386401ErinMcHughFBlackhill Bounders02:05:33
387324GrahamHaldaneMV55 02:05:47
388153AlisonAndrewFV45Cumberland AC02:06:01
389470CatherineSmithFVCAC02:06:06
390518FionaWightmanFV45Redcar RC02:06:16
391140FrankHealyMV50 02:06:30
392390KieraMackleF 02:06:35
393284ClareDentFV35 02:06:45
39426MonikaFitzF 02:06:48
395436AmandaPhillipsFV40Blackhill Bounders02:06:50
396268JohnCrombieMV55 02:06:56
39769AnnaColquittM 02:07:10
398388JudyLucasFV55 02:07:13
399120GayEastoeFV60Alnwick Harriers02:07:19
400119RichardEastoeMV55Alnwick Harriers02:07:19
401465MichaelSiddleMV40 02:07:24
402340LehnaHewittFClapham Chasers02:07:47
403297DavidFerrierMV50 02:08:16
404148GraemeLatimerMV45Wigton RR02:08:18
405530JenniferLeeFV40Tayside running Striders02:08:26
406241BernardBrownMV50 02:08:29
407554CatherineHodgettsFV40Astley & Tyldesley RR02:08:37
40825RussellWilkinsMV65 02:08:49
409428DavidOglethorpeMV45 02:08:56
41037DianeCannonFV40 02:09:33
411404TomMearaM 02:09:35
412235SarahBrightFWharfedale Harriers02:09:41
413322RuthGriffithFV40 02:09:46
414139LukeWoodendMClaremont RR02:09:50
415605AnneFrancisFV45 02:09:59
41655GreigTesterM 02:10:12
41756JessicaTesterF 02:10:12
41872GeofAlredMV65 02:10:24
41978SeanMacfarlaneMV55 02:10:50
420531MikeFletcherM 02:11:05
421509ChrisWalmsleyMV45St Bees Triers02:11:13
422392KevinMaguireMV65Winston Runners02:11:31
42351SaraSeniorFV35 02:11:32
424517HollyWhiteFTyne Bridge Harriers02:11:55
425425LauraOgleF 02:11:55
426132JeremyAncketillMV55Keswick AC02:11:58
427357MarcelaJacksonFV35Keswick AC02:12:05
428107NicolaYoungFV40 02:12:08
429166PaulButtonMV55 02:12:12
430117JonathanKellettMV40 02:12:12
43114JohnJacksonMV65 02:12:19
43236AdrianHolmeMV45 02:12:23
433356SamanthaJackmanFV40 02:12:40
43433ChrisSheffieldMV50 02:13:20
43522TristanReidM 02:13:25
436272StephenDaglishMV50Blackhill Bounders02:13:28
437118FionaKellettFV45 02:13:39
43824DeanBallM 02:13:52
439545LindaWilsonFSwinton Rc02:14:00
440110GillSykesFV45 02:14:44
441525JudithDawsonF 02:14:56
442608PaulBrownriggMV45 02:15:16
44360KarlPughMV40 02:16:41
444371JulieKirbyFV45 02:17:49
445236JamesBrightMV40Wharfedale Harriers02:18:12
446289RosalindDydeFV55Winston Runners02:18:15
447503HenryVaneM 02:18:57
4486StevenGunnMV50 02:18:57
449467RebeccaSimmondsF 02:19:58
450306EmmaFulwoodF 02:20:08
451537EmilyGreenhowF 02:20:15
452536DanielRoperM 02:20:16
453429RandyOrrisonMV45 02:20:20
454446JonathanRichardsonM 02:20:41
455499JeniferTurnerFWerrington Joggers02:20:53
45696EmmaBlandFV40Quakers RC02:21:06
457557RosieCumellaF 02:21:07
458350TaraHornerFV40 02:21:19
45950HarryStevensonMV45 02:23:07
460330GeoffreyHarringtonMV65Cumberland AC02:23:09
461189DonaldBeechMV75 02:23:33
462440MartinaPracuchovaFSheffield RC02:23:48
46379PaulDenyerMV40St Bees Triers02:24:01
464460JanetScottFV50Quakers RC02:24:26
465222AnneBartramFV50Quakers RC02:25:13
466423MalcolmNicholsonMV45 02:25:22
467497SimonTurnbullMLowfell RC02:25:46
468347AdrienneHogarthFV50 02:26:19
469341ChristineHewittFV60 02:26:45
470445MartinRepeckyM 02:27:00
47171JaneBondFV45 02:27:12
472223KevinBartramMV50Quakers RC02:27:20
47320SharronSkeenFV40Blackhill Bounders02:27:39
474487VickyThomasF 02:28:05
475441PaulPrescottM 02:28:11
476403HannaMearaFV35 02:28:11
477295RebeccaErringtonF 02:28:24
478535RececcaGreenwellFKeswick AC02:28:26
479138EdwardSmithMV50 02:28:26
480294NinaErringtonFV35DH Runners02:28:52
481258SteveClaringboldMDH Runners02:28:52
482476NickySteelsFV40 02:29:06
483113LianneBrooks SandersFV35 02:29:06
484389DionMabeyMV50 02:30:05
485273JoDarbyFV35 02:30:49
486220PhilippaBarnesFChapel Allerton RR02:32:04
487228MatthewBenningM 02:32:04
48821TonySkeenMV45Blackhill Bounders02:32:54
489253RebeccaChizaryF 02:33:39
490141GeorgeMcQuadeMV50 02:33:39
491161HeidiMartinF 02:36:02
492116StanWhiteMV75Lowfell RC02:36:11
49335GeoffHortonMV60 02:36:46
494521SarahWilsonF 02:37:51
495407StuartMilesMV50Fetcheveryone02:41:52
496376MarkKirkwoodMV45 02:43:11
497355MarkHumeMV65Alnwick Harriers02:44:16
49898RickyAdamsM 02:45:06
499326IanHallMV60 02:46:48
50061SarahParkinsF 02:46:56
501498JayneTurnerFV45Werrington Joggers02:48:00
502201MichaelAckerleyMV80Great Langdale AC02:50:04
503267LyndyCozFV45 02:50:04
504202SimonAckerleyMV50 02:50:04
Back to year index - Top of page